EN

Hourly Weather Brussels

Today, 20 April, Tuesday

Time Temperature Precipitation Wind Pressure Humidity
00:00 +7°C° 0 mm 0 mps 760 mmHg 89%
01:00 +6°C° 0 mm 0 mps 760 mmHg 90%
02:00 +6°C° 0 mm 0 mps 760 mmHg 90%
03:00 +6°C° 0 mm 0 mps 760 mmHg 91%
04:00 +6°C° 0 mm 0 mps 760 mmHg 90%
05:00 +6°C° 0 mm 0 mps 760 mmHg 89%
06:00 +8°C° 0 mm 1 mps 760 mmHg 88%
07:00 +9°C° 0 mm 0 mps 760 mmHg 81%
08:00 +10°C° 0 mm 0 mps 760 mmHg 74%
09:00 +12°C° 0 mm 0 mps 760 mmHg 67%
10:00 +13°C° 0 mm 0 mps 760 mmHg 62%
11:00 +15°C° 0 mm 0 mps 759 mmHg 56%
12:00 +16°C° 0 mm 0 mps 759 mmHg 50%
13:00 +18°C° 0 mm 1 mps 759 mmHg 49%
14:00 +18°C° 0 mm 1 mps 758 mmHg 47%
15:00 +18°C° 0 mm 1 mps 758 mmHg 46%
16:00 +16°C° 0 mm 2 mps 758 mmHg 53%
17:00 +15°C° 0 mm 2 mps 758 mmHg 60%
18:00 +12°C° 0 mm 3 mps 758 mmHg 67%
19:00 +13°C° 0 mm 2 mps 759 mmHg 68%
20:00 +12°C° 0 mm 2 mps 759 mmHg 70%
21:00 +12°C° 0 mm 2 mps 759 mmHg 71%
22:00 +12°C° 0 mm 2 mps 759 mmHg 72%
23:00 +12°C° 0 mm 2 mps 759 mmHg 73%

Tomorrow, 21 April, Wednesday

Time Temperature Precipitation Wind Pressure Humidity
00:00 +10°C° 0 mm 2 mps 759 mmHg 73%
01:00 +10°C° 0 mm 2 mps 759 mmHg 74%
02:00 +10°C° 0 mm 2 mps 759 mmHg 74%
03:00 +10°C° 0 mm 2 mps 759 mmHg 75%
04:00 +10°C° 0 mm 2 mps 759 mmHg 73%
05:00 +10°C° 0 mm 2 mps 759 mmHg 72%
06:00 +10°C° 0 mm 2 mps 759 mmHg 70%
07:00 +10°C° 0 mm 2 mps 760 mmHg 66%
08:00 +11°C° 0 mm 3 mps 760 mmHg 62%
09:00 +12°C° 0 mm 3 mps 760 mmHg 58%
10:00 +12°C° 0 mm 3 mps 760 mmHg 57%
11:00 +13°C° 0 mm 4 mps 760 mmHg 55%
12:00 +13°C° 0 mm 4 mps 760 mmHg 53%
13:00 +13°C° 0.1 mm 4 mps 760 mmHg 56%
14:00 +13°C° 0.1 mm 5 mps 760 mmHg 59%
15:00 +13°C° 0.1 mm 5 mps 760 mmHg 62%
16:00 +12°C° 0 mm 5 mps 760 mmHg 62%
17:00 +10°C° 0 mm 5 mps 761 mmHg 63%
18:00 +9°C° 0 mm 5 mps 761 mmHg 63%
19:00 +7°C° 0 mm 5 mps 762 mmHg 65%
20:00 +6°C° 0 mm 5 mps 762 mmHg 67%
21:00 +3°C° 0 mm 5 mps 763 mmHg 68%
22:00 +4°C° 0 mm 4 mps 763 mmHg 71%
23:00 +3°C° 0 mm 4 mps 764 mmHg 73%

Day after tomorrow, 22 April, Thursday

Time Temperature Precipitation Wind Pressure Humidity
00:00 +2°C° 0 mm 3 mps 764 mmHg 75%
01:00 +2°C° 0 mm 3 mps 764 mmHg 77%
02:00 +1°C° 0 mm 3 mps 764 mmHg 78%
03:00 +2°C° 0 mm 2 mps 764 mmHg 79%
04:00 +2°C° 0 mm 2 mps 764 mmHg 77%
05:00 +3°C° 0 mm 2 mps 765 mmHg 74%
06:00 +3°C° 0 mm 2 mps 765 mmHg 72%
07:00 +5°C° 0 mm 2 mps 765 mmHg 66%
08:00 +7°C° 0 mm 3 mps 765 mmHg 61%
09:00 +7°C° 0 mm 4 mps 765 mmHg 56%
10:00 +8°C° 0 mm 4 mps 765 mmHg 53%
11:00 +10°C° 0 mm 4 mps 765 mmHg 50%
12:00 +11°C° 0 mm 4 mps 765 mmHg 48%
13:00 +11°C° 0 mm 4 mps 765 mmHg 47%
14:00 +12°C° 0 mm 5 mps 765 mmHg 47%
15:00 +12°C° 0 mm 5 mps 765 mmHg 47%
16:00 +10°C° 0 mm 5 mps 765 mmHg 52%
17:00 +9°C° 0 mm 5 mps 765 mmHg 57%
18:00 +8°C° 0 mm 4 mps 765 mmHg 62%
19:00 +6°C° 0 mm 4 mps 766 mmHg 67%
20:00 +5°C° 0 mm 3 mps 766 mmHg 72%
21:00 +4°C° 0 mm 3 mps 767 mmHg 77%
22:00 +3°C° 0 mm 3 mps 767 mmHg 80%
23:00 +3°C° 0 mm 2 mps 767 mmHg 84%

23 April, Friday

Time Temperature Precipitation Wind Pressure Humidity
00:00 +3°C° 0 mm 2 mps 767 mmHg 88%
01:00 +3°C° 0 mm 2 mps 767 mmHg 89%
02:00 +2°C° 0 mm 2 mps 767 mmHg 90%
03:00 +2°C° 0 mm 2 mps 767 mmHg 92%
04:00 +3°C° 0 mm 2 mps 767 mmHg 90%
05:00 +3°C° 0 mm 2 mps 767 mmHg 89%
06:00 +4°C° 0 mm 2 mps 767 mmHg 87%
07:00 +6°C° 0 mm 2 mps 767 mmHg 78%
08:00 +7°C° 0 mm 2 mps 767 mmHg 70%
09:00 +9°C° 0 mm 3 mps 768 mmHg 61%
10:00 +10°C° 0 mm 3 mps 767 mmHg 56%
11:00 +12°C° 0 mm 3 mps 767 mmHg 52%
12:00 +13°C° 0 mm 4 mps 767 mmHg 48%
13:00 +13°C° 0 mm 4 mps 766 mmHg 47%
14:00 +14°C° 0 mm 4 mps 766 mmHg 46%
15:00 +14°C° 0 mm 5 mps 765 mmHg 45%
16:00 +13°C° 0 mm 4 mps 765 mmHg 51%
17:00 +12°C° 0 mm 4 mps 765 mmHg 57%
18:00 +11°C° 0 mm 3 mps 765 mmHg 63%
19:00 +10°C° 0 mm 3 mps 765 mmHg 66%
20:00 +8°C° 0 mm 3 mps 766 mmHg 70%
21:00 +7°C° 0 mm 3 mps 766 mmHg 74%
22:00 +5°C° 0 mm 3 mps 766 mmHg 77%
23:00 +5°C° 0 mm 3 mps 765 mmHg 80%

24 April, Saturday

Time Temperature Precipitation Wind Pressure Humidity
00:00 +4°C° 0 mm 3 mps 765 mmHg 83%
01:00 +4°C° 0 mm 3 mps 765 mmHg 84%
02:00 +3°C° 0 mm 3 mps 765 mmHg 85%
03:00 +3°C° 0 mm 3 mps 765 mmHg 86%
04:00 +3°C° 0 mm 3 mps 765 mmHg 84%
05:00 +4°C° 0 mm 3 mps 765 mmHg 81%
06:00 +4°C° 0 mm 4 mps 765 mmHg 79%
07:00 +6°C° 0 mm 4 mps 764 mmHg 72%
08:00 +8°C° 0 mm 4 mps 764 mmHg 65%
09:00 +10°C° 0 mm 5 mps 764 mmHg 59%
10:00 +12°C° 0 mm 5 mps 764 mmHg 55%
11:00 +13°C° 0 mm 5 mps 763 mmHg 52%
12:00 +15°C° 0 mm 5 mps 763 mmHg 48%
13:00 +15°C° 0 mm 5 mps 763 mmHg 48%
14:00 +15°C° 0 mm 5 mps 763 mmHg 47%
15:00 +15°C° 0 mm 5 mps 762 mmHg 46%
16:00 +14°C° 0 mm 4 mps 762 mmHg 50%
17:00 +13°C° 0 mm 4 mps 762 mmHg 54%
18:00 +12°C° 0 mm 4 mps 762 mmHg 57%
19:00 +11°C° 0 mm 4 mps 763 mmHg 60%
20:00 +11°C° 0 mm 4 mps 763 mmHg 64%
21:00 +10°C° 0 mm 4 mps 763 mmHg 67%
22:00 +8°C° 0 mm 4 mps 763 mmHg 69%
23:00 +8°C° 0 mm 4 mps 763 mmHg 71%

25 April, Sunday

Time Temperature Precipitation Wind Pressure Humidity
00:00 +7°C° 0 mm 4 mps 763 mmHg 73%
01:00 +7°C° 0 mm 4 mps 763 mmHg 76%
02:00 +6°C° 0 mm 4 mps 763 mmHg 79%
03:00 +5°C° 0 mm 4 mps 763 mmHg 82%
04:00 +6°C° 0 mm 4 mps 763 mmHg 81%
05:00 +6°C° 0 mm 4 mps 763 mmHg 80%
06:00 +6°C° 0 mm 4 mps 763 mmHg 79%
07:00 +8°C° 0 mm 4 mps 763 mmHg 72%
08:00 +10°C° 0 mm 5 mps 763 mmHg 66%
09:00 +13°C° 0 mm 5 mps 763 mmHg 59%
10:00 +15°C° 0 mm 5 mps 763 mmHg 55%
11:00 +17°C° 0 mm 4 mps 762 mmHg 51%
12:00 +18°C° 0 mm 4 mps 762 mmHg 47%
13:00 +19°C° 0 mm 4 mps 762 mmHg 47%
14:00 +19°C° 0 mm 5 mps 761 mmHg 47%
15:00 +19°C° 0 mm 5 mps 761 mmHg 48%
16:00 +18°C° 0 mm 4 mps 761 mmHg 53%
17:00 +17°C° 0 mm 4 mps 761 mmHg 58%
18:00 +16°C° 0 mm 3 mps 761 mmHg 64%
19:00 +13°C° 0 mm 4 mps 761 mmHg 66%
20:00 +12°C° 0 mm 4 mps 761 mmHg 68%
21:00 +11°C° 0 mm 4 mps 761 mmHg 70%
22:00 +11°C° 0 mm 4 mps 761 mmHg 71%
23:00 +10°C° 0 mm 3 mps 761 mmHg 73%
Show more

We Need Your Consent

Meteoprog and our Service Providers may store and access personal data such as cookies, device identifiers or other similar technologies on your device and process such data to personalise content and ads, as well as provide social media features and to analyse the traffic.

  • Store and/or access information on your device

    Cookies, device identifiers or other information can be stored or accessed on your device for the purposes indicated above.

  • Personalised ads and content, ad and content measurement, audience insights, and products development

    Ads and content can be personalised based on a profile. More data can be added to better personalise ads and content. Ad and content performance can be measured. Insights about the audience who saw the ads and content can be derived. Such data can be used to develop or improve user’s experience, systems and software.

By clicking ‘I Agree’ you will allow the use of indicated cookies, device identifiers, web beacons or other similar technologies. Your settings can be changed in the browser on your device.

For certain purposes, legitimate interests may be relied on, rather than consent. You can read more about this in our Privacy and Cookie Policy.